Regional Weather Roundup
Issued by NWS

Home | Current Version | Previous Version | Graphics & Text | Print | Product List | Glossary On
Versions: 1 2 3 4 5 6 7 8 9 10 11 12 13 14 15 16 17 18 19 20 21 22 23 24 25 26 27 28 29 30 31 32 33 34 35 36 37 38 39 40 41 42 43 44 45 46 47 48 49 50
000
ASUS43 KBIS 260301
RWRND

NORTH DAKOTA REGIONAL WEATHER ROUNDUP
NATIONAL WEATHER SERVICE BISMARCK ND
900 PM CST SUN JAN 25 2015

NOTE: "FAIR" INDICATES FEW OR NO CLOUDS BELOW 12,000 FEET WITH NO
SIGNIFICANT WEATHER AND/OR OBSTRUCTIONS TO VISIBILITY.


NDZ001>003-009>011-017-260400-
NORTHWEST NORTH DAKOTA

CITY           SKY/WX    TMP DP  RH WIND       PRES   REMARKS
WILLISTON      PTCLDY    41  34  76 SW8       29.81R
MINOT          MOCLDY    39  31  72 SW16G28   29.71F
$$

NDZ018>021-031>035-040>046-260400-
SOUTHWEST NORTH DAKOTA

CITY           SKY/WX    TMP DP  RH WIND       PRES   REMARKS
BISMARCK       CLOUDY    37  31  78 SW3       29.82F
DICKINSON      CLOUDY    44  35  70 W18       29.80F
GARRISON         N/A     36  32  85 SW9       29.74F
HETTINGER ARPT CLOUDY    41  33  73 W10       29.87S
$$

NDZ004>008-012>016-024-026-027-054-260400-
NORTHEAST NORTH DAKOTA

CITY           SKY/WX    TMP DP  RH WIND       PRES   REMARKS
GRAND FORKS    CLOUDY    26  20  77 S16       29.82F WCI  14
GRND FRKS AFB  CLOUDY    27  21  80 S12       29.80F WCI  16
DEVILS LAKE    CLOUDY    30  28  93 S8        29.75F
$$

NDZ022-023-025-028>030-036>039-047>053-260400-
SOUTHEAST NORTH DAKOTA

CITY           SKY/WX    TMP DP  RH WIND       PRES   REMARKS
FARGO          CLOUDY    27  20  75 S15       29.88F WCI  15
JAMESTOWN      CLOUDY    32  30  92 S13       29.81F
$$



USA.gov is the U.S. government's official web portal to all federal, state and local government web resources and services.